QPF
0.00 0.00 0.00 0.00 0.00 0.00 0.00 0.00 0.00 0.00 0.00 0.00 0.00 0.00 0.00 0.00 0.00 0.00 0.00 0.00 0.00 0.00 0.00 0.00 0.00 0.00 0.00 0.00 0.00 0.00 0.00 0.00 0.00 0.00 0.00 0.00 0.00 0.00 0.00 0.00 0.00 0.00 0.00 0.00
0.00 0.00 0.00 0.00 0.00 0.00 0.00 0.00 0.00 0.00 0.00 0.00 0.00 0.00 0.00 0.00 0.00 0.00 0.00 0.00 0.00 0.00 0.00 0.00 0.00 0.00 0.00 0.00 0.00 0.00 0.00 0.00 0.00 0.00 0.00 0.00 0.00 0.00 0.00 0.00 0.00 0.00 0.00 0.00
0.00 0.00 0.00 0.00 0.00 0.00 0.00 0.00 0.00 0.00 0.00 0.00 0.00 0.00 0.00 0.00 0.00 0.00 0.00 0.00 0.00 0.00 0.00 0.00 0.00 0.00 0.00 0.00 0.00 0.00 0.00 0.00 0.00 0.00 0.00 0.00 0.00 0.00 0.00 0.00 0.00 0.00 0.00 0.00
0.00 0.00 0.00 0.00 0.00 0.00 0.00 0.00 0.00 0.00 0.00 0.00 0.00 0.00 0.00 0.00 0.00 0.00 0.00 0.00 0.00 0.00 0.00 0.00 0.00 0.00 0.00 0.00 0.00 0.00 0.00 0.00 0.00 0.00 0.00 0.00 0.00 0.00 0.00 0.00 0.00 0.00 0.01 0.06
0.00 0.00 0.00 0.00 0.00 0.00 0.00 0.00 0.00 0.00 0.00 0.00 0.00 0.00 0.00 0.00 0.00 0.00 0.00 0.00 0.00 0.00 0.00 0.00 0.00 0.00 0.00 0.00 0.00 0.00 0.00 0.00 0.00 0.00 0.00 0.00 0.00 0.00 0.00 0.01 0.02 0.02 0.05 0.08
0.00 0.00 0.00 0.00 0.00 0.00 0.00 0.00 0.00 0.00 0.00 0.00 0.00 0.00 0.00 0.00 0.00 0.00 0.00 0.00 0.00 0.00 0.00 0.00 0.00 0.00 0.00 0.00 0.00 0.00 0.00 0.00 0.00 0.00 0.00 0.00 0.00 0.00 0.00 0.00 0.00 0.05 0.04 0.05
0.00 0.00 0.00 0.00 0.00 0.00 0.00 0.00 0.00 0.00 0.00 0.00 0.00 0.00 0.00 0.00 0.00 0.00 0.00 0.00 0.00 0.00 0.00 0.00 0.00 0.00 0.00 0.00 0.00 0.00 0.00 0.00 0.00 0.00 0.00 0.00 0.00 0.00 0.00 0.00 0.00 0.00 0.02 0.03
0.00 0.00 0.00 0.00 0.00 0.00 0.00 0.00 0.00 0.00 0.00 0.00 0.00 0.00 0.00 0.00 0.00 0.00 0.00 0.00 0.00 0.00 0.00 0.00 0.00 0.00 0.00 0.00 0.00 0.00 0.00 0.00 0.00 0.00 0.00 0.00 0.00 0.00 0.00 0.00 0.00 0.00 0.01 0.01
0.00 0.00 0.00 0.00 0.00 0.00 0.00 0.00 0.00 0.00 0.00 0.00 0.00 0.00 0.00 0.00 0.00 0.00 0.00 0.00 0.00 0.00 0.00 0.00 0.00 0.00 0.00 0.00 0.00 0.00 0.00 0.00 0.00 0.00 0.00 0.00 0.00 0.00 0.00 0.00 0.00 0.00 0.00 0.00
0.00 0.00 0.00 0.00 0.00 0.00 0.00 0.00 0.00 0.00 0.00 0.00 0.00 0.00 0.00 0.00 0.00 0.00 0.00 0.00 0.00 0.00 0.00 0.00 0.00 0.00 0.00 0.00 0.00 0.00 0.00 0.00 0.00 0.00 0.00 0.00 0.00 0.00 0.00 0.00 0.00 0.00 0.00 0.00
0.00 0.00 0.00 0.00 0.00 0.00 0.00 0.00 0.00 0.00 0.00 0.00 0.00 0.00 0.00 0.00 0.00 0.00 0.00 0.00 0.00 0.00 0.00 0.00 0.00 0.00 0.00 0.00 0.00 0.00 0.00 0.00 0.00 0.00 0.00 0.00 0.00 0.00 0.00 0.00 0.00 0.00 0.00 0.00
0.00 0.00 0.00 0.00 0.00 0.00 0.00 0.00 0.00 0.00 0.00 0.00 0.00 0.00 0.00 0.00 0.00 0.00 0.00 0.00 0.00 0.00 0.00 0.00 0.00 0.00 0.00 0.00 0.00 0.00 0.00 0.00 0.00 0.00 0.00 0.00 0.00 0.00 0.00 0.00 0.00 0.00 0.00 0.00
0.00 0.00 0.00 0.00 0.00 0.00 0.00 0.00 0.00 0.00 0.00 0.00 0.00 0.00 0.00 0.00 0.00 0.00 0.00 0.00 0.00 0.00 0.00 0.00 0.00 0.00 0.00 0.00 0.00 0.00 0.00 0.00 0.00 0.00 0.00 0.00 0.00 0.00 0.00 0.00 0.00 0.00 0.00 0.00
0.00 0.00 0.00 0.00 0.00 0.00 0.00 0.00 0.00 0.00 0.00 0.00 0.00 0.00 0.00 0.00 0.00 0.00 0.00 0.00 0.00 0.00 0.00 0.00 0.00 0.00 0.00 0.00 0.00 0.00 0.00 0.00 0.00 0.00 0.00 0.00 0.00 0.00 0.00 0.00 0.00 0.00 0.00 0.00
0.00 0.00 0.00 0.00 0.00 0.00 0.00 0.00 0.00 0.00 0.00 0.00 0.00 0.00 0.00 0.00 0.00 0.00 0.00 0.00 0.00 0.00 0.00 0.00 0.00 0.00 0.00 0.00 0.00 0.00 0.00 0.00 0.00 0.00 0.00 0.00 0.00 0.00 0.00 0.00 0.00 0.00 0.00 0.00
0.00 0.00 0.00 0.00 0.00 0.00 0.00 0.00 0.00 0.00 0.00 0.00 0.00 0.00 0.00 0.00 0.00 0.00 0.00 0.00 0.00 0.00 0.00 0.00 0.00 0.00 0.00 0.00 0.00 0.00 0.00 0.00 0.00 0.00 0.00 0.00 0.00 0.00 0.00 0.00 0.00 0.00 0.00 0.00
0.00 0.00 0.00 0.00 0.00 0.00 0.00 0.00 0.00 0.00 0.00 0.00 0.00 0.00 0.00 0.00 0.00 0.00 0.00 0.00 0.00 0.00 0.00 0.00 0.00 0.00 0.00 0.00 0.00 0.00 0.00 0.00 0.00 0.00 0.00 0.00 0.00 0.00 0.00 0.00 0.00 0.00 0.00 0.00
0.00 0.00 0.00 0.00 0.00 0.00 0.00 0.00 0.00 0.00 0.00 0.00 0.00 0.00 0.00 0.00 0.00 0.00 0.00 0.00 0.00 0.00 0.00 0.00 0.00 0.00 0.00 0.00 0.00 0.00 0.00 0.00 0.00 0.00 0.00 0.00 0.00 0.00 0.00 0.00 0.00 0.00 0.00 0.00
0.00 0.00 0.00 0.00 0.00 0.00 0.00 0.00 0.00 0.00 0.00 0.00 0.00 0.00 0.00 0.00 0.00 0.00 0.00 0.00 0.00 0.00 0.00 0.00 0.00 0.00 0.00 0.00 0.00 0.00 0.00 0.00 0.00 0.00 0.00 0.00 0.00 0.00 0.00 0.00 0.00 0.00 0.00 0.00
0.00 0.00 0.00 0.00 0.00 0.00 0.00 0.00 0.00 0.00 0.00 0.00 0.00 0.00 0.00 0.00 0.00 0.00 0.00 0.00 0.00 0.00 0.00 0.00 0.00 0.00 0.00 0.00 0.00 0.00 0.00 0.00 0.00 0.00 0.00 0.00 0.00 0.00 0.00 0.00 0.00 0.00 0.00 0.00
0.00 0.00 0.00 0.00 0.00 0.00 0.00 0.00 0.00 0.00 0.00 0.00 0.00 0.00 0.00 0.00 0.00 0.00 0.00 0.00 0.00 0.00 0.00 0.00 0.00 0.00 0.00 0.00 0.00 0.00 0.00 0.00 0.00 0.00 0.00 0.00 0.00 0.00 0.00 0.00 0.00 0.00 0.00 0.00
0.00 0.00 0.00 0.00 0.00 0.00 0.00 0.00 0.00 0.00 0.00 0.00 0.00 0.00 0.00 0.00 0.00 0.00 0.00 0.00 0.00 0.00 0.00 0.00 0.00 0.00 0.00 0.00 0.00 0.00 0.00 0.00 0.00 0.00 0.00 0.00 0.00 0.00 0.00 0.00 0.00 0.00 0.00 0.00
0.00 0.00 0.00 0.00 0.00 0.00 0.00 0.00 0.00 0.00 0.00 0.00 0.00 0.00 0.00 0.00 0.00 0.00 0.00 0.00 0.00 0.00 0.00 0.00 0.00 0.00 0.00 0.00 0.00 0.00 0.00 0.00 0.00 0.00 0.00 0.00 0.00 0.00 0.00 0.00 0.00 0.00 0.00 0.00
0.00 0.00 0.00 0.00 0.00 0.00 0.00 0.00 0.00 0.00 0.00 0.00 0.00 0.00 0.00 0.00 0.00 0.00 0.00 0.00 0.00 0.00 0.00 0.00 0.00 0.00 0.00 0.00 0.00 0.00 0.00 0.00 0.00 0.00 0.00 0.00 0.00 0.00 0.00 0.00 0.00 0.00 0.00 0.00
0.00 0.00 0.00 0.00 0.00 0.00 0.00 0.00 0.00 0.00 0.00 0.00 0.00 0.00 0.00 0.00 0.00 0.00 0.00 0.00 0.00 0.00 0.00 0.00 0.00 0.00 0.00 0.00 0.00 0.00 0.00 0.00 0.00 0.00 0.00 0.00 0.00 0.00 0.00 0.00 0.00 0.00 0.00 0.00
0.00 0.00 0.00 0.00 0.00 0.00 0.00 0.00 0.00 0.00 0.00 0.00 0.00 0.00 0.00 0.00 0.00 0.00 0.00 0.00 0.00 0.00 0.00 0.00 0.00 0.00 0.00 0.00 0.00 0.00 0.00 0.00 0.00 0.00 0.00 0.00 0.00 0.00 0.00 0.00 0.00 0.00 0.00 0.00
MSLP
1022.95 1023.74 1025.19 1025.53 1025.19 1025.08 1025.12 1025.26 1025.38 1024.78 1024.39 1024.11 1023.04 1021.74 1019.68 1019.25 1019.25 1019.18 1019.20 1019.44 1019.52 1019.67 1019.50 1019.58 1019.71 1019.76 1019.77 1019.88 1019.92 1019.85 1019.60 1019.22 1018.87 1018.44 1017.79 1017.07 1016.38 1015.68 1014.93 1014.49 1014.05 1013.46 1012.84 1012.27
1023.86 1024.96 1025.49 1025.42 1025.27 1025.24 1025.32 1025.44 1025.45 1024.90 1024.67 1024.57 1023.26 1021.05 1019.42 1018.98 1018.82 1018.87 1018.97 1019.19 1019.34 1019.46 1019.33 1019.38 1019.34 1019.45 1019.74 1019.83 1019.76 1019.57 1019.37 1019.18 1018.98 1018.73 1018.30 1017.55 1016.64 1015.69 1014.94 1014.05 1013.37 1012.88 1012.39 1011.85
1024.49 1025.37 1025.33 1025.32 1025.35 1025.33 1025.37 1025.61 1025.80 1026.11 1025.21 1024.79 1023.94 1021.11 1019.31 1018.59 1018.62 1018.57 1018.67 1018.87 1019.14 1019.10 1019.07 1018.96 1019.10 1019.24 1019.54 1019.54 1019.47 1019.32 1019.35 1019.24 1018.96 1018.57 1017.85 1017.09 1016.29 1015.42 1014.61 1013.84 1013.10 1012.41 1012.04 1011.57
1025.16 1025.33 1025.33 1025.41 1025.42 1025.50 1025.57 1025.69 1026.09 1026.28 1026.25 1025.98 1024.89 1022.62 1019.71 1018.66 1018.39 1018.22 1018.14 1018.51 1018.52 1018.74 1018.76 1018.76 1018.87 1018.99 1019.17 1019.24 1019.32 1019.34 1019.23 1019.16 1018.81 1018.25 1017.58 1016.92 1016.31 1015.56 1014.82 1014.10 1013.17 1012.23 1011.65 1011.03
1025.57 1025.39 1025.40 1025.41 1025.37 1025.52 1025.86 1026.01 1026.40 1026.60 1026.88 1026.85 1025.44 1024.42 1019.52 1018.97 1018.28 1017.81 1017.61 1017.74 1018.08 1018.37 1018.51 1018.49 1018.68 1018.77 1018.81 1018.93 1019.09 1019.17 1019.15 1019.04 1018.65 1018.07 1017.48 1016.90 1016.32 1015.75 1014.97 1014.19 1013.26 1012.31 1011.76 1011.47
1025.49 1025.39 1025.41 1025.27 1025.28 1025.51 1025.88 1026.36 1026.92 1027.23 1027.24 1027.15 1025.76 1024.95 1020.10 1018.87 1017.66 1017.45 1017.37 1017.53 1017.89 1018.07 1018.10 1018.24 1018.33 1018.50 1018.48 1018.65 1018.91 1018.98 1018.96 1018.81 1018.49 1018.00 1017.40 1016.93 1016.51 1015.93 1015.15 1014.38 1013.69 1013.06 1012.66 1012.30
1025.75 1025.52 1025.26 1025.19 1025.34 1025.56 1026.10 1027.04 1027.56 1028.01 1027.61 1026.96 1026.16 1025.22 1019.86 1018.09 1017.60 1017.32 1017.37 1017.62 1017.71 1017.78 1017.82 1017.87 1018.09 1018.07 1018.12 1018.37 1018.55 1018.66 1018.68 1018.58 1018.28 1017.90 1017.41 1017.00 1016.64 1016.20 1015.55 1014.91 1014.29 1013.70 1013.35 1013.08
1026.38 1025.77 1025.32 1025.22 1025.36 1025.81 1026.56 1027.14 1027.91 1028.54 1028.49 1027.37 1026.11 1023.96 1019.01 1017.89 1017.57 1017.55 1017.50 1017.40 1017.46 1017.54 1017.53 1017.60 1017.59 1017.66 1017.72 1017.95 1018.12 1018.25 1018.27 1018.24 1018.05 1017.75 1017.41 1017.14 1016.81 1016.39 1015.87 1015.37 1014.90 1014.37 1014.07 1013.90
1026.34 1025.84 1025.33 1025.31 1025.34 1025.83 1026.53 1027.08 1027.46 1028.05 1028.60 1028.09 1025.12 1022.54 1018.87 1017.47 1017.18 1017.12 1017.17 1017.24 1017.29 1017.28 1017.22 1017.11 1017.04 1017.07 1017.15 1017.31 1017.42 1017.58 1017.68 1017.63 1017.67 1017.56 1017.27 1017.02 1016.81 1016.54 1016.17 1015.83 1015.40 1015.03 1014.73 1014.33
1026.15 1026.12 1025.65 1025.50 1025.56 1025.97 1026.24 1026.89 1027.50 1027.96 1028.15 1027.34 1024.58 1022.93 1019.94 1018.14 1017.34 1017.05 1017.19 1017.32 1017.33 1017.12 1016.92 1016.74 1016.65 1016.50 1016.39 1016.60 1016.87 1017.16 1017.25 1017.28 1017.16 1017.16 1017.01 1016.73 1016.63 1016.44 1016.25 1016.00 1015.81 1015.41 1015.05 1014.84
1025.93 1026.43 1026.26 1025.97 1025.81 1025.89 1026.57 1026.80 1027.45 1027.80 1027.76 1027.38 1025.86 1021.30 1018.60 1018.25 1017.91 1017.70 1017.64 1017.45 1017.20 1016.89 1016.58 1016.22 1016.10 1015.86 1015.87 1016.10 1016.41 1016.56 1016.75 1016.84 1016.77 1016.70 1016.66 1016.53 1016.43 1016.29 1016.13 1016.01 1015.91 1015.56 1015.43 1015.25
1025.91 1026.48 1026.54 1025.91 1025.82 1025.78 1025.96 1026.36 1026.76 1027.42 1027.71 1027.40 1026.33 1021.07 1018.17 1018.13 1018.04 1017.90 1017.70 1017.38 1016.85 1016.57 1016.14 1015.76 1015.54 1015.41 1015.41 1015.55 1015.83 1016.07 1016.21 1016.16 1016.07 1016.25 1016.32 1016.27 1016.14 1016.03 1015.84 1015.62 1015.56 1015.48 1015.37 1015.31
1025.74 1026.54 1026.66 1026.30 1026.49 1026.23 1026.26 1026.22 1026.32 1026.75 1026.78 1026.22 1025.18 1020.11 1017.92 1017.82 1017.73 1017.60 1017.54 1016.93 1016.50 1016.08 1015.65 1015.28 1015.13 1015.08 1015.02 1015.06 1015.29 1015.45 1015.51 1015.49 1015.58 1015.83 1015.95 1016.02 1016.09 1016.10 1015.99 1015.88 1015.66 1015.48 1015.30 1015.17
1025.40 1026.41 1026.73 1026.49 1025.99 1025.85 1026.15 1025.86 1025.94 1026.05 1026.25 1024.93 1021.99 1019.45 1017.77 1017.01 1017.53 1017.13 1016.85 1016.60 1016.21 1015.74 1015.35 1014.89 1014.52 1014.41 1014.23 1014.18 1014.34 1014.62 1014.84 1015.15 1015.36 1015.53 1015.62 1015.74 1015.72 1015.75 1015.79 1015.83 1015.81 1015.76 1015.70 1015.48
1025.91 1026.54 1026.74 1026.20 1025.70 1025.58 1025.12 1025.01 1025.08 1024.98 1024.22 1023.75 1020.26 1019.52 1017.17 1017.44 1017.54 1017.12 1016.85 1016.43 1016.03 1015.38 1014.87 1014.56 1014.24 1013.85 1013.54 1013.43 1013.52 1013.75 1013.97 1014.33 1014.86 1015.26 1015.44 1015.44 1015.69 1015.81 1015.85 1015.85 1015.74 1015.65 1015.54 1015.47
1026.55 1026.72 1026.98 1026.37 1025.29 1025.19 1024.30 1023.07 1023.36 1023.51 1023.16 1022.34 1020.49 1019.09 1017.56 1016.96 1017.19 1017.15 1016.85 1016.52 1016.07 1015.37 1014.76 1014.09 1013.61 1013.32 1013.05 1012.90 1012.86 1013.02 1012.89 1012.96 1013.48 1013.89 1014.12 1014.37 1014.75 1015.00 1015.13 1015.38 1015.57 1015.70 1015.68 1015.61
1026.91 1027.21 1027.35 1026.17 1025.26 1024.40 1022.73 1020.36 1021.15 1021.57 1021.16 1020.60 1020.65 1017.72 1017.43 1017.13 1017.12 1016.87 1016.50 1016.13 1015.86 1015.21 1014.60 1013.98 1013.38 1012.81 1012.22 1012.01 1012.04 1012.06 1012.27 1012.57 1012.70 1012.81 1013.07 1013.40 1013.69 1014.02 1014.37 1014.72 1015.08 1015.34 1015.54 1015.65
1026.90 1027.37 1027.41 1026.60 1025.25 1023.11 1020.08 1019.54 1019.68 1020.13 1019.71 1019.45 1018.59 1017.85 1017.79 1017.56 1017.05 1016.95 1016.20 1015.85 1015.29 1014.86 1014.18 1013.59 1012.97 1012.40 1011.75 1011.34 1011.31 1011.42 1011.63 1011.96 1012.36 1012.61 1012.60 1012.80 1013.19 1013.48 1013.69 1014.02 1014.51 1014.86 1015.05 1015.15
1026.42 1026.94 1027.16 1026.78 1025.80 1022.07 1018.90 1019.29 1019.31 1019.31 1018.40 1017.97 1018.33 1018.02 1017.94 1017.73 1017.25 1016.38 1015.44 1015.35 1014.98 1014.34 1013.60 1012.90 1012.19 1011.73 1011.30 1011.13 1010.80 1010.85 1011.02 1011.20 1011.29 1011.37 1011.66 1012.13 1012.62 1013.11 1013.46 1013.73 1013.72 1013.77 1014.13 1014.54
1026.44 1026.28 1026.41 1026.58 1025.56 1022.64 1019.06 1018.55 1018.41 1018.61 1018.33 1018.11 1018.46 1018.29 1017.93 1017.45 1016.96 1015.59 1014.98 1014.53 1013.91 1013.29 1012.63 1011.91 1011.23 1010.85 1010.79 1010.11 1010.19 1010.49 1010.19 1010.59 1010.36 1010.14 1010.09 1010.58 1011.23 1011.80 1012.27 1012.70 1013.08 1013.45 1013.76 1013.73
1026.84 1027.00 1026.30 1026.08 1024.85 1021.69 1018.62 1018.31 1018.27 1018.47 1018.55 1017.85 1017.83 1017.73 1017.62 1017.44 1016.60 1014.86 1014.23 1013.31 1012.65 1012.00 1011.32 1010.89 1010.72 1010.34 1009.49 1009.24 1009.48 1009.49 1009.53 1009.38 1008.59 1009.23 1009.63 1010.01 1010.47 1011.00 1011.50 1012.05 1012.56 1013.02 1013.25 1013.65
1025.04 1025.43 1025.46 1025.50 1024.56 1021.40 1018.51 1018.64 1018.32 1017.84 1017.47 1017.57 1017.51 1017.26 1016.90 1016.28 1015.16 1014.30 1013.49 1012.80 1012.00 1011.31 1010.59 1010.20 1010.11 1009.65 1008.87 1008.60 1008.72 1008.40 1008.10 1007.44 1008.02 1008.41 1008.85 1009.26 1009.86 1010.44 1011.16 1011.58 1012.13 1012.67 1012.91 1013.08
1023.39 1022.29 1022.55 1022.37 1020.27 1018.63 1018.38 1018.13 1017.64 1017.67 1017.60 1017.38 1017.13 1016.58 1016.04 1015.33 1014.44 1013.59 1012.66 1011.95 1011.25 1010.65 1010.12 1009.74 1009.41 1008.84 1008.30 1007.94 1008.11 1007.65 1006.20 1006.64 1007.07 1007.61 1007.88 1008.19 1008.58 1009.10 1009.77 1010.59 1011.27 1012.27 1012.76 1012.99
1021.44 1020.93 1020.93 1020.41 1018.56 1018.22 1017.81 1017.51 1017.51 1017.36 1017.17 1016.74 1016.55 1016.15 1015.76 1015.10 1014.35 1013.36 1012.47 1011.56 1010.93 1010.21 1009.57 1009.20 1008.70 1008.22 1007.58 1006.97 1006.95 1006.70 1006.21 1006.17 1006.29 1006.56 1006.80 1007.14 1007.65 1008.22 1008.87 1009.54 1010.17 1010.81 1011.30 1011.92
1020.58 1020.21 1019.09 1018.51 1018.06 1017.51 1017.34 1017.22 1017.01 1016.70 1016.46 1016.13 1015.99 1015.78 1015.33 1014.84 1014.21 1013.65 1012.75 1011.78 1010.87 1010.10 1009.43 1008.89 1008.40 1007.84 1007.14 1006.49 1006.06 1005.77 1005.47 1005.56 1005.74 1005.85 1005.94 1006.22 1006.71 1007.23 1007.97 1008.35 1008.62 1009.18 1009.88 1010.40
1019.66 1018.48 1018.39 1017.00 1017.10 1017.21 1017.10 1016.79 1016.62 1016.39 1016.18 1015.95 1015.71 1015.30 1014.66 1014.46 1014.01 1013.40 1012.65 1011.87 1011.08 1010.19 1009.30 1008.66 1008.22 1007.74 1006.99 1006.45 1005.83 1005.14 1005.07 1005.24 1005.27 1005.29 1005.51 1005.71 1006.03 1006.44 1006.82 1007.46 1008.25 1008.68 1008.93 1009.68
Thickness
5606 5595 5588 5593 5595 5595 5593 5593 5590 5591 5598 5598 5602 5612 5634 5638 5630 5629 5628 5625 5622 5621 5622 5619 5616 5614 5611 5609 5606 5603 5601 5599 5597 5594 5594 5593 5591 5590 5588 5580 5573 5568 5563 5560
5599 5589 5590 5591 5594 5594 5590 5586 5588 5590 5589 5591 5593 5614 5629 5629 5631 5628 5628 5625 5621 5618 5619 5617 5616 5615 5610 5607 5604 5601 5597 5594 5590 5585 5583 5583 5582 5581 5574 5565 5556 5543 5530 5525
5594 5590 5590 5591 5589 5589 5585 5585 5582 5575 5579 5577 5577 5616 5630 5632 5625 5625 5622 5619 5617 5619 5621 5621 5619 5615 5609 5606 5601 5598 5593 5588 5585 5581 5580 5578 5576 5572 5563 5548 5529 5504 5491 5489
5585 5584 5586 5583 5584 5582 5584 5579 5576 5568 5567 5579 5565 5608 5620 5625 5623 5625 5628 5622 5622 5621 5619 5619 5618 5614 5609 5605 5598 5593 5589 5584 5581 5578 5576 5573 5568 5561 5548 5530 5508 5498 5489 5486
5585 5578 5580 5581 5583 5578 5579 5573 5567 5564 5552 5546 5570 5573 5621 5611 5626 5630 5634 5632 5628 5623 5619 5620 5616 5611 5608 5602 5596 5590 5585 5580 5577 5574 5571 5568 5561 5553 5541 5522 5503 5493 5489 5485
5576 5575 5575 5578 5577 5576 5570 5564 5552 5547 5551 5553 5562 5562 5614 5616 5623 5633 5634 5633 5628 5625 5623 5619 5614 5609 5606 5600 5592 5588 5583 5578 5573 5570 5568 5563 5556 5549 5539 5521 5501 5494 5489 5486
5567 5576 5576 5577 5578 5575 5560 5533 5537 5562 5556 5582 5544 5552 5615 5628 5628 5634 5637 5631 5627 5624 5621 5618 5613 5610 5605 5599 5592 5586 5581 5575 5571 5567 5564 5559 5553 5545 5536 5520 5504 5497 5491 5489
5548 5566 5578 5576 5577 5570 5558 5549 5536 5563 5563 5557 5550 5569 5622 5627 5623 5622 5623 5623 5621 5622 5619 5615 5613 5608 5604 5598 5591 5585 5579 5574 5568 5564 5560 5555 5548 5542 5534 5523 5512 5500 5496 5491
5558 5574 5577 5573 5576 5573 5563 5557 5554 5530 5518 5529 5549 5579 5620 5629 5632 5630 5627 5626 5624 5621 5619 5617 5614 5609 5604 5598 5592 5585 5580 5575 5568 5563 5558 5554 5547 5540 5533 5525 5517 5509 5502 5500
5565 5558 5572 5575 5574 5568 5569 5556 5554 5529 5563 5569 5568 5563 5595 5614 5629 5634 5631 5626 5620 5619 5617 5615 5612 5609 5606 5600 5593 5585 5579 5575 5570 5564 5558 5554 5548 5541 5534 5527 5520 5515 5511 5508
5563 5558 5570 5570 5566 5565 5560 5556 5545 5542 5542 5560 5558 5601 5601 5601 5621 5623 5618 5616 5614 5615 5616 5616 5612 5610 5605 5598 5591 5586 5580 5576 5571 5566 5560 5555 5549 5543 5538 5531 5525 5520 5515 5512
5568 5550 5545 5573 5564 5564 5565 5561 5553 5554 5558 5530 5535 5585 5619 5608 5605 5608 5610 5610 5613 5611 5613 5614 5611 5607 5603 5598 5592 5587 5582 5578 5574 5568 5562 5556 5551 5546 5541 5536 5531 5527 5522 5517
5566 5555 5538 5572 5560 5560 5561 5556 5554 5543 5538 5537 5552 5604 5614 5603 5608 5606 5606 5610 5613 5610 5610 5610 5607 5605 5602 5598 5593 5588 5584 5580 5574 5567 5561 5556 5550 5544 5540 5536 5531 5528 5525 5522
5573 5549 5560 5557 5581 5567 5562 5559 5550 5555 5538 5551 5579 5600 5624 5621 5609 5606 5608 5606 5602 5604 5604 5605 5605 5606 5604 5600 5595 5590 5584 5577 5571 5565 5560 5555 5550 5546 5541 5536 5531 5527 5522 5519
5562 5556 5536 5549 5551 5552 5563 5567 5555 5547 5567 5568 5596 5587 5614 5601 5597 5603 5603 5597 5598 5601 5603 5603 5603 5605 5604 5601 5595 5590 5585 5578 5570 5562 5557 5552 5546 5541 5537 5533 5529 5526 5523 5519
5544 5551 5540 5536 5550 5543 5552 5564 5560 5559 5563 5564 5583 5592 5602 5605 5594 5585 5590 5586 5589 5594 5598 5600 5600 5601 5601 5600 5597 5591 5590 5585 5575 5569 5564 5556 5549 5543 5538 5532 5526 5521 5518 5515
5540 5536 5532 5543 5546 5542 5564 5580 5570 5558 5556 5570 5560 5592 5592 5590 5583 5582 5586 5586 5583 5586 5591 5594 5596 5598 5601 5599 5595 5592 5587 5580 5575 5571 5565 5558 5551 5544 5537 5531 5524 5519 5514 5509
5523 5525 5525 5528 5530 5565 5603 5584 5571 5565 5562 5561 5569 5572 5570 5572 5577 5569 5574 5574 5580 5581 5588 5588 5590 5590 5592 5592 5590 5586 5580 5574 5567 5560 5558 5553 5546 5540 5535 5528 5522 5515 5510 5506
5524 5521 5524 5519 5506 5562 5603 5568 5561 5572 5585 5567 5563 5564 5560 5559 5559 5569 5572 5574 5572 5578 5579 5582 5585 5585 5584 5581 5583 5579 5573 5569 5565 5558 5555 5548 5541 5533 5527 5522 5519 5515 5510 5502
5513 5519 5523 5496 5512 5552 5588 5577 5563 5558 5570 5556 5548 5552 5554 5554 5560 5580 5576 5570 5571 5569 5572 5574 5579 5577 5575 5580 5574 5569 5568 5562 5559 5560 5559 5550 5541 5532 5526 5520 5512 5506 5501 5498
5497 5492 5507 5509 5500 5535 5565 5561 5556 5560 5560 5551 5550 5547 5545 5546 5551 5567 5567 5569 5571 5571 5574 5572 5567 5568 5575 5573 5564 5563 5559 5557 5562 5554 5548 5541 5533 5524 5518 5511 5504 5497 5492 5485
5503 5493 5493 5493 5488 5505 5548 5541 5548 5548 5543 5544 5539 5542 5541 5547 5554 5556 5560 5563 5566 5567 5567 5566 5560 5562 5566 5563 5556 5558 5558 5561 5551 5544 5538 5531 5523 5514 5505 5499 5491 5484 5480 5475
5511 5529 5509 5513 5524 5542 5533 5532 5532 5524 5522 5522 5526 5536 5538 5542 5546 5551 5554 5556 5559 5560 5560 5557 5555 5555 5556 5554 5546 5549 5560 5551 5543 5537 5532 5526 5519 5512 5502 5493 5483 5471 5462 5458
5521 5522 5519 5514 5538 5533 5526 5522 5518 5517 5517 5522 5520 5521 5522 5524 5529 5534 5537 5541 5542 5545 5547 5547 5545 5546 5548 5548 5542 5540 5543 5538 5534 5529 5525 5520 5512 5503 5494 5485 5477 5469 5461 5452
5512 5515 5526 5508 5519 5518 5515 5513 5514 5514 5514 5514 5510 5504 5504 5504 5507 5508 5513 5518 5523 5526 5527 5528 5528 5530 5533 5535 5535 5531 5530 5526 5521 5518 5516 5511 5503 5497 5486 5480 5474 5466 5456 5449
5504 5517 5510 5514 5517 5506 5502 5502 5497 5497 5496 5494 5490 5489 5490 5485 5486 5488 5490 5493 5496 5501 5505 5507 5506 5507 5511 5512 5515 5518 5514 5508 5508 5505 5501 5496 5491 5486 5480 5470 5459 5454 5448 5438